User: anonymous   Login
Location: Quebec
(46.8000°N, 71.2500°W)
Time: 14:35:45
(UTC-04:00)
Language:

CZ-4B R/B - Orbit

View from above orbital plane
View from above orbital plane
View from above satellite
View from above satellite

Ground track
Ground track

The orbit data is extracted from the following two-line orbital elements,

1 29093U 06015B   16206.20795606  .00003384  00000-0  88218-4 0  9994
2 29093  97.4856 304.2235 0070082  55.8800 304.9066 15.37081615567100
Epoch (UTC): 24 July 2016 04:59:27
Eccentricity: 0.0070082
inclination: 97.4856°
perigee height: 407 km
apogee height: 502 km
right ascension of ascending node: 304.2235°
argument of perigee: 55.8800°
revolutions per day: 15.37081615
mean anomaly at epoch: 304.9066°
orbit number at epoch: 56710

The dashed part of the orbit path shows where the satellite is in the earth's shadow,  

DLR